GW1125 Weather Reports


time (UTC)temp
C
wind
direction
speed
KPH
gust
KPH
rain 1hr
cm
rain 24hr
cm
rain mn
cm
humidity
%
barometer
mb
20260902015836 18 112 0.0 0.0 0.00 0.00 0.00 75 1008.6
20260902014827 18 115 0.0 0.0 0.00 0.00 0.00 75 1008.5
20260902013813 18 112 0.0 0.0 0.00 0.00 0.00 75 1008.8
20260902012758 18 113 1.6 3.2 0.00 0.00 0.00 76 1008.7
20260902011744 18 116 0.0 1.6 0.00 0.00 0.00 77 1008.5
20260902010732 18 121 0.0 0.0 0.00 0.00 0.00 77 1008.6
20260902005732 18 110 0.0 0.0 0.00 0.00 0.00 77 1008.6
20260902004731 18 113 3.2 3.2 0.00 0.00 0.00 76 1008.6
20260902003707 18 111 0.0 0.0 0.00 0.00 0.00 75 1008.4
20260902002650 18 114 0.0 0.0 0.00 0.00 0.00 75 1008.5
20260902001626 18 110 0.0 0.0 0.00 0.00 0.00 78 1008.6
20260902000613 18 93 1.6 3.2 0.00 0.00 0.00 77 1008.8
20260901235548 18 117 0.0 1.6 0.00 0.00 0.00 75 1008.6
20260901234526 18 106 0.0 0.0 0.00 0.00 0.00 76 1008.5
20260901233511 18 110 0.0 0.0 0.00 0.00 0.00 77 1008.6
20260901232501 18 126 1.6 1.6 0.00 0.00 0.00 77 1008.7
20260901231445 18 105 0.0 0.0 0.00 0.00 0.00 78 1008.7
20260901230440 18 121 0.0 0.0 0.00 0.00 0.00 79 1008.6
20260901225431 17 100 0.0 0.0 0.00 0.00 0.00 79 1008.7
20260901224428 17 102 0.0 0.0 0.00 0.00 0.00 79 1008.8
20260901223417 17 109 0.0 0.0 0.00 0.00 0.00 80 1008.8
20260901222411 17 95 1.6 1.6 0.00 0.00 0.00 79 1008.5
20260901221403 17 108 0.0 0.0 0.00 0.00 0.00 79 1008.8
20260901220335 18 163 1.6 1.6 0.00 0.00 0.00 78 1008.6
20260901215301 18 102 0.0 0.0 0.00 0.00 0.00 77 1008.7
20260901214241 18 106 0.0 0.0 0.00 0.00 0.00 78 1008.7
20260901213232 18 115 1.6 1.6 0.00 0.00 0.00 76 1008.6
20260901212205 18 105 0.0 0.0 0.00 0.00 0.00 76 1008.8
20260901211159 19 86 1.6 1.6 0.00 0.00 0.00 74 1008.5
20260901210141 18 122 0.0 0.0 0.00 0.00 0.00 73 1008.6
20260901205136 18 116 0.0 1.6 0.00 0.00 0.00 73 1008.7
20260901204129 19 102 0.0 0.0 0.00 0.00 0.00 74 1008.8
20260901203117 18 106 0.0 0.0 0.00 0.00 0.00 76 1008.8
20260901202110 18 133 0.0 1.6 0.00 0.00 0.00 77 1008.9
20260901201106 18 101 0.0 0.0 0.00 0.00 0.00 76 1009.0
20260901200055 18 103 0.0 0.0 0.00 0.00 0.00 80 1008.8
20260901195043 18 107 0.0 0.0 0.00 0.00 0.00 79 1009.1
20260901194029 18 108 0.0 0.0 0.00 0.00 0.00 80 1009.0
20260901193028 18 106 0.0 0.0 0.00 0.00 0.00 80 1009.0
20260901191956 17 105 0.0 0.0 0.00 0.00 0.00 81 1009.0
20260901190956 17 105 0.0 0.0 0.00 0.00 0.00 82 1009.3
20260901185953 17 105 0.0 0.0 0.00 0.00 0.00 83 1009.3
20260901184931 17 105 0.0 0.0 0.00 0.00 0.00 82 1009.3
20260901183914 17 106 0.0 0.0 0.00 0.00 0.00 83 1009.3
20260901182846 17 105 0.0 0.0 0.00 0.00 0.00 83 1009.3
20260901181818 17 104 0.0 0.0 0.00 0.00 0.00 82 1009.1
20260901180748 17 105 0.0 0.0 0.00 0.00 0.00 81 1009.1
20260901175733 17 105 0.0 0.0 0.00 0.00 0.00 80 1009.2
20260901174730 17 103 0.0 0.0 0.00 0.00 0.00 80 1009.0
20260901173727 17 118 0.0 0.0 0.00 0.00 0.00 82 1009.1
20260901172708 17 111 0.0 0.0 0.00 0.00 0.00 82 1008.9
20260901171632 17 108 0.0 0.0 0.00 0.00 0.00 82 1008.8
20260901170612 17 100 0.0 0.0 0.00 0.00 0.00 82 1008.8
20260901165611 16 103 0.0 0.0 0.00 0.00 0.00 83 1008.9
20260901164557 16 103 0.0 0.0 0.00 0.00 0.00 84 1009.1
20260901163547 16 101 0.0 0.0 0.00 0.00 0.00 85 1009.0
20260901162521 16 101 0.0 1.6 0.00 0.00 0.00 87 1009.0
20260901161515 15 109 0.0 0.0 0.00 0.00 0.00 87 1009.1
20260901160457 15 105 0.0 0.0 0.00 0.00 0.00 88 1009.3
20260901155454 15 110 0.0 0.0 0.00 0.00 0.00 90 1009.2
20260901154454 15 112 0.0 0.0 0.00 0.00 0.00 90 1009.4
20260901153454 14 105 0.0 0.0 0.00 0.00 0.00 91 1009.3
20260901152438 14 105 0.0 0.0 0.00 0.00 0.00 92 1009.4
20260901151403 14 110 0.0 0.0 0.00 0.00 0.00 92 1009.3
20260901150359 13 108 0.0 0.0 0.00 0.00 0.00 94 1009.3
20260901145348 13 106 0.0 0.0 0.00 0.00 0.00 96 1009.4
20260901144337 13 107 0.0 0.0 0.00 0.00 0.00 97 1009.2
20260901143315 12 107 0.0 0.0 0.00 0.00 0.00 98 1009.2
20260901142248 12 113 0.0 0.0 0.00 0.00 0.00 98 1009.1
20260901141212 12 108 0.0 0.0 0.00 0.00 0.00 98 1009.0
20260901140145 12 108 0.0 0.0 0.00 0.00 0.00 97 1008.9
20260901135103 11 108 0.0 0.0 0.00 0.00 0.00 97 1008.7
20260901134040 11 108 0.0 0.0 0.00 0.00 0.00 97 1008.6
20260901133026 11 110 0.0 0.0 0.00 0.00 0.00 97 1008.7
20260901132024 11 110 0.0 0.0 0.00 0.00 0.00 97 1008.8
20260901131023 11 109 0.0 0.0 0.00 0.00 0.00 97 1008.7
20260901130000 11 109 0.0 0.0 0.00 0.00 0.00 97 1008.4
20260901124930 11 109 0.0 0.0 0.00 0.00 0.00 97 1008.4
20260901123913 11 109 0.0 0.0 0.00 0.00 0.00 97 1008.7
20260901122855 12 109 0.0 0.0 0.00 0.00 0.00 97 1008.5
20260901121831 12 110 0.0 0.0 0.00 0.00 0.00 97 1008.2
20260901120819 11 109 0.0 0.0 0.00 0.00 0.00 97 1008.5
20260901115819 12 109 0.0 0.0 0.00 0.00 0.00 97 1008.2
20260901114757 12 109 0.0 0.0 0.00 0.00 0.00 97 1008.3
20260901113750 12 109 0.0 0.0 0.00 0.00 0.00 97 1008.1
20260901112739 12 109 0.0 0.0 0.00 0.00 0.00 96 1007.8
20260901111731 12 109 0.0 0.0 0.00 0.00 0.00 96 1007.7
20260901110728 12 109 0.0 0.0 0.00 0.00 0.00 96 1007.9
20260901105700 12 109 0.0 0.0 0.00 0.00 0.00 96 1007.8
20260901104639 12 110 0.0 0.0 0.00 0.00 0.00 96 1007.9
20260901103634 12 109 0.0 0.0 0.00 0.00 0.00 96 1007.8
20260901102628 12 109 0.0 0.0 0.00 0.00 0.00 96 1007.9
20260901101617 12 109 0.0 0.0 0.00 0.00 0.00 96 1007.7
20260901100615 12 109 0.0 0.0 0.00 0.00 0.00 95 1007.7
20260901095549 12 109 0.0 0.0 0.00 0.00 0.00 95 1007.5
20260901094522 12 108 0.0 0.0 0.00 0.00 0.00 95 1007.4
20260901093517 12 108 0.0 0.0 0.00 0.00 0.00 95 1007.5
20260901092459 12 108 0.0 0.0 0.00 0.00 0.00 95 1007.4
20260901091458 13 108 0.0 0.0 0.00 0.00 0.00 94 1007.5
20260901090440 13 108 0.0 0.0 0.00 0.00 0.00 94 1007.4
20260901085407 13 108 0.0 0.0 0.00 0.00 0.00 93 1007.3
20260901084407 13 108 0.0 0.0 0.00 0.00 0.00 93 1007.3
20260901083342 13 108 0.0 0.0 0.00 0.00 0.00 92 1007.4
20260901082317 13 108 0.0 0.0 0.00 0.00 0.00 92 1007.4
20260901081247 13 108 0.0 0.0 0.00 0.00 0.00 92 1007.3
20260901080218 13 109 0.0 0.0 0.00 0.00 0.00 92 1007.2
20260901075211 13 109 0.0 0.0 0.00 0.00 0.00 91 1007.0
20260901074208 13 108 0.0 0.0 0.00 0.00 0.00 91 1007.0
20260901073149 13 108 0.0 0.0 0.00 0.00 0.00 90 1007.0
20260901072130 13 108 0.0 0.0 0.00 0.00 0.00 89 1006.8
20260901071102 14 108 0.0 0.0 0.00 0.00 0.00 88 1006.9
20260901070038 15 108 0.0 0.0 0.00 0.00 0.00 87 1006.9
20260901065009 15 108 0.0 0.0 0.00 0.00 0.00 87 1006.8
20260901063418 15 108 0.0 0.0 0.00 0.00 0.00 86 1007.0
20260901062355 15 109 0.0 0.0 0.00 0.00 0.00 85 1007.0
20260901061322 15 108 0.0 0.0 0.00 0.00 0.00 84 1007.0
20260901060305 15 109 0.0 0.0 0.00 0.00 0.00 83 1007.0
20260901055256 15 109 0.0 0.0 0.00 0.00 0.00 82 1007.2
20260901054244 15 108 0.0 0.0 0.00 0.00 0.00 83 1007.1
20260901053228 15 108 0.0 0.0 0.00 0.00 0.00 82 1007.2
20260901052226 16 108 0.0 0.0 0.00 0.00 0.00 81 1007.2
20260901051159 16 109 0.0 0.0 0.00 0.00 0.00 79 1007.1
20260901050158 16 108 0.0 0.0 0.00 0.00 0.00 80 1007.2
20260901045151 16 108 0.0 0.0 0.00 0.00 0.00 79 1007.2
20260901044138 16 108 0.0 0.0 0.00 0.00 0.00 78 1007.4
20260901043118 17 108 0.0 0.0 0.00 0.00 0.00 76 1007.1
20260901042047 17 108 0.0 0.0 0.00 0.00 0.00 75 1007.4
20260901041016 17 107 0.0 0.0 0.00 0.00 0.00 76 1007.2
20260901040002 17 105 0.0 0.0 0.00 0.00 0.00 73 1007.2
20260901034923 17 101 0.0 0.0 0.00 0.00 0.00 73 1007.0
20260901033912 18 108 0.0 0.0 0.00 0.00 0.00 72 1006.9
20260901032840 18 102 0.0 0.0 0.00 0.00 0.00 72 1006.7
20260901031822 18 104 0.0 0.0 0.00 0.00 0.00 71 1006.8
20260901030743 18 102 0.0 0.0 0.00 0.00 0.00 69 1006.6
20260901025730 19 102 0.0 0.0 0.00 0.00 0.00 67 1006.6
20260901024705 20 104 0.0 0.0 0.00 0.00 0.00 64 1006.5
20260901023647 20 85 0.0 1.6 0.00 0.00 0.00 63 1006.8
20260901022624 20 71 3.2 4.8 0.00 0.00 0.00 62 1006.8
20260901021602 21 60 3.2 4.8 0.00 0.00 0.00 62 1006.7